FW9021 Weather Reports


Display with metric or nautical units.
time (UTC)temp
F
wind
direction
speed
MPH
gust
MPH
rain 1hr
in
rain 24hr
in
rain mn
in
humidity
%
barometer
mb
20260905083537 73 0 0.0 2.0 0.00 0.00 0.00 82 1015.5
20260905083052 73 0 0.0 1.0 0.00 0.00 0.00 82 1015.5
20260905082538 73 0 0.0 1.0 0.00 0.00 0.00 82 1015.6
20260905082042 73 0 0.0 3.0 0.00 0.00 0.00 82 1015.5
20260905081557 73 37 0.0 3.0 0.00 0.00 0.00 82 1015.6
20260905081038 73 37 2.0 3.0 0.00 0.00 0.00 82 1015.6
20260905080540 73 37 2.0 3.0 0.00 0.00 0.00 82 1015.5
20260905080056 73 37 0.0 2.0 0.00 0.00 0.00 82 1015.4
20260905075539 73 0 0.0 2.0 0.00 0.00 0.00 82 1015.4
20260905075042 73 0 1.0 2.0 0.00 0.00 0.00 82 1015.5
20260905074554 73 0 0.0 2.0 0.00 0.00 0.00 82 1015.6
20260905074043 73 69 1.0 2.0 0.00 0.00 0.00 82 1015.7
20260905073538 73 69 0.0 3.0 0.00 0.00 0.00 82 1015.7
20260905073104 73 0 0.0 3.0 0.00 0.00 0.00 82 1015.7
20260905072539 73 86 1.0 3.0 0.00 0.00 0.00 82 1015.7
20260905072038 73 49 1.0 3.0 0.00 0.00 0.00 82 1015.6
20260905071605 73 0 0.0 1.0 0.00 0.00 0.00 82 1015.8
20260905071042 73 0 0.0 3.0 0.00 0.00 0.00 82 1015.7
20260905070538 73 0 0.0 3.0 0.00 0.00 0.00 83 1015.7
20260905070058 73 122 1.0 3.0 0.00 0.00 0.00 83 1015.7
20260905065538 73 70 1.0 3.0 0.00 0.00 0.00 83 1015.6
20260905065038 73 34 1.0 2.0 0.00 0.00 0.00 83 1015.7
20260905064554 74 56 0.0 3.0 0.00 0.00 0.00 83 1015.7
20260905064039 74 0 0.0 3.0 0.00 0.00 0.00 82 1015.7
20260905063538 74 40 1.0 3.0 0.00 0.00 0.00 82 1015.8
20260905063059 74 71 0.0 2.0 0.00 0.00 0.00 83 1015.6
20260905062538 74 71 0.0 2.0 0.00 0.00 0.00 83 1015.8
20260905062038 74 0 0.0 2.0 0.00 0.00 0.00 83 1015.9
20260905061607 74 71 0.0 2.0 0.00 0.00 0.00 83 1015.8
20260905061040 74 0 0.0 2.0 0.00 0.00 0.00 83 1015.8
20260905060541 74 0 0.0 2.0 0.00 0.00 0.00 83 1016.0
20260905060112 74 0 0.0 5.0 0.00 0.00 0.00 83 1016.0
20260905055539 74 0 0.0 6.0 0.00 0.00 0.00 83 1016.0
20260905055039 74 71 2.0 6.0 0.00 0.00 0.00 83 1016.0
20260905054555 74 105 2.0 6.0 0.00 0.00 0.00 83 1015.8
20260905054040 75 0 1.0 4.0 0.00 0.00 0.00 83 1015.8
20260905053540 75 103 1.0 3.0 0.00 0.00 0.00 83 1015.8
20260905053058 75 111 1.0 2.0 0.00 0.00 0.00 83 1015.8
20260905052540 75 55 0.0 2.0 0.00 0.00 0.00 83 1015.9
20260905052042 75 0 0.0 1.0 0.00 0.00 0.00 83 1016.0
20260905051605 75 0 0.0 2.0 0.00 0.00 0.00 83 1015.9
20260905051040 76 55 0.0 2.0 0.00 0.00 0.00 82 1015.9
20260905050541 75 84 1.0 2.0 0.00 0.00 0.00 82 1016.0
20260905050058 75 122 0.0 2.0 0.00 0.00 0.00 82 1016.0
20260905045541 75 122 0.0 2.0 0.00 0.00 0.00 82 1015.9
20260905045041 75 0 0.0 2.0 0.00 0.00 0.00 83 1015.9
20260905044603 75 122 0.0 2.0 0.00 0.00 0.00 83 1016.0
20260905044043 75 85 0.0 2.0 0.00 0.00 0.00 83 1015.9
20260905043542 75 0 0.0 2.0 0.00 0.00 0.00 83 1015.9
20260905043101 75 85 0.0 2.0 0.00 0.00 0.00 83 1016.1
20260905042541 75 92 0.0 2.0 0.00 0.00 0.00 83 1016.2
20260905042042 75 92 0.0 2.0 0.00 0.00 0.00 83 1016.3
20260905041558 75 92 0.0 3.0 0.00 0.00 0.00 83 1016.3
20260905041042 75 5 1.0 4.0 0.00 0.00 0.00 83 1016.4
20260905040540 75 27 2.0 4.0 0.00 0.00 0.00 83 1016.5
20260905040105 76 34 1.0 3.0 0.00 0.00 0.00 83 1016.5
20260905035541 75 34 0.0 1.0 0.00 0.00 0.00 84 1016.5
20260905035041 76 34 0.0 2.0 0.00 0.00 0.00 84 1016.6
20260905034605 76 0 0.0 2.0 0.00 0.00 0.00 83 1016.7
20260905034040 76 0 1.0 4.0 0.00 0.00 0.00 83 1016.8
20260905033544 76 101 1.0 5.0 0.00 0.00 0.00 83 1016.9
20260905033101 76 34 3.0 5.0 0.00 0.00 0.00 84 1016.7
20260905032542 76 5 3.0 4.0 0.00 0.00 0.00 84 1016.7
20260905032041 76 67 0.0 4.0 0.00 0.00 0.00 84 1017.0
20260905031557 76 67 1.0 4.0 0.00 0.00 0.00 84 1017.0
20260905031040 76 43 2.0 4.0 0.00 0.00 0.00 84 1017.0
20260905030540 76 42 1.0 3.0 0.00 0.00 0.00 84 1016.9
20260905030108 76 0 0.0 3.0 0.00 0.00 0.00 84 1016.9
20260905025540 76 30 1.0 3.0 0.00 0.00 0.00 84 1017.0
20260905025042 77 30 2.0 3.0 0.00 0.00 0.00 84 1017.1
20260905024554 77 71 0.0 3.0 0.00 0.00 0.00 84 1017.2
20260905024041 77 71 1.0 3.0 0.00 0.00 0.00 84 1017.2
20260905023545 77 71 1.0 3.0 0.00 0.00 0.00 84 1017.3
20260905023105 77 0 0.0 2.0 0.00 0.00 0.00 84 1017.3
20260905022539 77 105 0.0 3.0 0.00 0.00 0.00 84 1017.3
20260905022043 77 105 0.0 3.0 0.00 0.00 0.00 84 1017.3
20260905021557 77 105 1.0 3.0 0.00 0.00 0.00 84 1017.2
20260905021040 78 35 1.0 3.0 0.00 0.00 0.00 84 1017.2
20260905020540 78 35 1.0 3.0 0.00 0.00 0.00 84 1017.0
20260905020108 78 35 2.0 3.0 0.00 0.00 0.00 84 1017.1
20260905015540 78 67 0.0 1.0 0.00 0.00 0.00 84 1017.1
20260905015041 78 0 0.0 2.0 0.00 0.00 0.00 84 1017.1
20260905014555 78 0 0.0 2.0 0.00 0.00 0.00 84 1017.2
20260905014043 78 67 0.0 4.0 0.00 0.00 0.00 84 1017.2
20260905013540 78 0 0.0 4.0 0.00 0.00 0.00 84 1017.2
20260905013053 78 51 1.0 3.0 0.00 0.00 0.00 84 1017.2
20260905012540 79 50 1.0 3.0 0.00 0.00 0.00 83 1017.2
20260905012040 79 101 0.0 3.0 0.00 0.00 0.00 83 1017.2
20260905011625 79 0 1.0 3.0 0.00 0.00 0.00 83 1017.1
20260905011040 79 78 0.0 3.0 0.00 0.00 0.00 83 1017.0
20260905010544 79 0 1.0 3.0 0.00 0.00 0.00 83 1016.9
20260905010055 80 0 1.0 2.0 0.00 0.00 0.00 83 1016.9
20260905005541 80 71 1.0 3.0 0.00 0.00 0.00 82 1016.7
20260905005040 80 61 0.0 3.0 0.00 0.00 0.00 82 1016.6
20260905004557 80 0 1.0 3.0 0.00 0.00 0.00 82 1016.5
20260905004040 80 67 1.0 3.0 0.00 0.00 0.00 82 1016.6
20260905003540 81 85 0.0 2.0 0.00 0.00 0.00 82 1016.5
20260905003052 81 0 0.0 2.0 0.00 0.00 0.00 81 1016.6
20260905002539 81 85 1.0 2.0 0.00 0.00 0.00 82 1016.6
20260905002040 81 0 0.0 1.0 0.00 0.00 0.00 81 1016.6
20260905001602 81 0 0.0 2.0 0.00 0.00 0.00 81 1016.4
20260905001038 81 0 0.0 3.0 0.00 0.00 0.00 81 1016.5
20260905000539 81 21 0.0 3.0 0.00 0.00 0.00 81 1016.3
20260905000058 81 44 0.0 4.0 0.00 0.00 0.00 80 1016.3
20260904235540 82 0 0.0 4.0 0.00 0.00 0.00 80 1016.4
20260904235042 82 71 2.0 5.0 0.00 0.00 0.00 80 1016.3
20260904234557 82 44 1.0 5.0 0.00 0.00 0.00 80 1016.3
20260904234039 82 29 2.0 7.0 0.00 0.00 0.00 80 1016.1
20260904233539 83 0 1.0 8.0 0.00 0.00 0.00 80 1016.1
20260904233049 83 43 4.0 8.0 0.00 0.00 0.00 80 1016.1
20260904232538 83 20 2.0 4.0 0.00 0.00 0.00 79 1016.1
20260904232038 84 5 2.0 4.0 0.00 0.00 0.00 79 1015.9
20260904231548 84 21 0.0 3.0 0.00 0.00 0.00 78 1015.9
20260904231037 83 70 0.0 3.0 0.00 0.00 0.00 78 1015.9
20260904230540 83 52 2.0 3.0 0.00 0.00 0.00 78 1015.7
20260904230058 83 88 1.0 3.0 0.00 0.00 0.00 78 1015.8
20260904225539 83 29 0.0 4.0 0.00 0.00 0.00 80 1015.9
20260904225038 83 28 1.0 4.0 0.00 0.00 0.00 80 1016.0
20260904224557 83 27 3.0 4.0 0.00 0.00 0.00 81 1015.9
20260904224038 83 5 0.0 3.0 0.00 0.00 0.00 80 1015.7
20260904223538 83 16 2.0 4.0 0.00 0.00 0.00 78 1015.8
20260904223052 84 15 1.0 4.0 0.00 0.00 0.00 77 1015.6
20260904222539 84 20 2.0 4.0 0.00 0.00 0.00 77 1015.5
20260904222038 84 325 2.0 3.0 0.00 0.00 0.00 74 1015.5
20260904221558 84 327 2.0 3.0 0.00 0.00 0.00 73 1015.5
20260904221040 84 15 0.0 3.0 0.00 0.00 0.00 73 1015.6
20260904220539 84 22 1.0 6.0 0.00 0.00 0.00 71 1015.7
20260904220058 84 89 0.0 7.0 0.00 0.00 0.00 70 1015.7
20260904215542 85 69 3.0 10.0 0.00 0.00 0.00 70 1015.7
20260904215042 85 37 6.0 11.0 0.00 0.00 0.00 69 1015.7
20260904214553 87 37 6.0 11.0 0.00 0.00 0.00 68 1015.8
20260904214038 88 18 4.0 9.0 0.00 0.00 0.00 66 1015.7
20260904213538 89 13 2.0 8.0 0.00 0.00 0.00 65 1015.6
20260904213050 89 10 2.0 8.0 0.00 0.00 0.00 66 1015.6
20260904212538 89 242 3.0 8.0 0.00 0.00 0.00 66 1015.7
20260904212038 88 303 2.0 9.0 0.00 0.00 0.00 67 1015.7
20260904211548 88 286 5.0 9.0 0.00 0.00 0.00 69 1015.7
20260904211038 88 245 2.0 6.0 0.00 0.00 0.00 68 1015.7
20260904210538 88 305 2.0 7.0 0.00 0.00 0.00 68 1015.8
20260904210056 88 270 2.0 7.0 0.00 0.00 0.00 67 1015.7
20260904205540 88 273 3.0 7.0 0.00 0.00 0.00 67 1015.8
20260904205038 88 314 1.0 7.0 0.00 0.00 0.00 68 1015.8
20260904204558 88 269 2.0 8.0 0.00 0.00 0.00 68 1015.8
20260904204038 88 247 5.0 8.0 0.00 0.00 0.00 68 1015.8
20260904203538 89 281 4.0 8.0 0.00 0.00 0.00 65 1015.9
20260904203052 89 246 1.0 3.0 0.00 0.00 0.00 59 1015.9
20260904202540 89 276 1.0 3.0 0.00 0.00 0.00 58 1015.9
20260904202042 90 294 2.0 3.0 0.00 0.00 0.00 61 1015.9
20260904201600 90 294 1.0 5.0 0.00 0.00 0.00 56 1015.9
20260904201040 90 296 1.0 5.0 0.00 0.00 0.00 57 1016.0
20260904200540 91 313 0.0 4.0 0.00 0.00 0.00 55 1016.0
20260904200058 90 0 0.0 4.0 0.00 0.00 0.00 57 1016.2
20260904195541 90 291 1.0 3.0 0.00 0.00 0.00 59 1016.3
20260904195042 90 279 1.0 3.0 0.00 0.00 0.00 60 1016.5
20260904194634 90 355 1.0 3.0 0.00 0.00 0.00 60 1016.6
20260904194041 90 0 1.0 3.0 0.00 0.00 0.00 60 1016.7
20260904193541 90 299 0.0 3.0 0.00 0.00 0.00 59 1016.8
20260904193101 89 78 1.0 5.0 0.00 0.00 0.00 60 1017.0
20260904192544 89 278 2.0 5.0 0.00 0.00 0.00 61 1017.0
20260904192041 89 187 3.0 5.0 0.00 0.00 0.00 59 1017.1
20260904191600 89 248 2.0 6.0 0.00 0.00 0.00 59 1017.2
20260904191041 90 284 2.0 6.0 0.00 0.00 0.00 58 1017.3
20260904190541 90 0 1.0 4.0 0.00 0.00 0.00 59 1017.4
20260904190058 89 268 0.0 13.0 0.00 0.00 0.00 59 1017.3
20260904185541 89 153 2.0 13.0 0.00 0.00 0.00 61 1017.3
20260904185040 89 19 8.0 13.0 0.00 0.00 0.00 63 1017.3
20260904184554 89 317 3.0 8.0 0.00 0.00 0.00 64 1017.4
20260904184041 88 261 4.0 8.0 0.00 0.00 0.00 63 1017.3
20260904183540 88 234 3.0 7.0 0.00 0.00 0.00 64 1017.5
20260904183115 88 231 2.0 7.0 0.00 0.00 0.00 65 1017.7
20260904182539 88 269 3.0 7.0 0.00 0.00 0.00 65 1017.7
20260904182040 88 240 4.0 8.0 0.00 0.00 0.00 66 1017.8
20260904181608 88 261 3.0 8.0 0.00 0.00 0.00 65 1017.8
20260904181041 87 257 2.0 7.0 0.00 0.00 0.00 63 1017.8
20260904180541 87 266 3.0 8.0 0.00 0.00 0.00 65 1017.9
20260904180059 88 263 3.0 8.0 0.00 0.00 0.00 64 1017.9
20260904175539 88 272 4.0 8.0 0.00 0.00 0.00 65 1018.1
20260904175039 88 230 2.0 5.0 0.00 0.00 0.00 65 1018.0
20260904174602 87 331 1.0 6.0 0.00 0.00 0.00 64 1018.2
20260904174039 87 5 1.0 6.0 0.00 0.00 0.00 66 1018.3
20260904173540 86 244 1.0 3.0 0.00 0.00 0.00 67 1018.4
20260904173051 86 352 0.0 5.0 0.00 0.00 0.00 68 1018.4
20260904172539 86 311 1.0 7.0 0.00 0.00 0.00 68 1018.4
20260904172038 86 252 3.0 8.0 0.00 0.00 0.00 69 1018.4
20260904171618 86 242 4.0 8.0 0.00 0.00 0.00 69 1018.4
20260904171038 86 237 5.0 8.0 0.00 0.00 0.00 70 1018.4
20260904170538 85 258 4.0 8.0 0.00 0.00 0.00 71 1018.5
20260904170059 85 252 4.0 7.0 0.00 0.00 0.00 72 1018.6
20260904165538 85 248 3.0 6.0 0.00 0.00 0.00 71 1018.6
20260904165039 85 231 3.0 6.0 0.00 0.00 0.00 72 1018.6
20260904164556 84 265 3.0 7.0 0.00 0.00 0.00 72 1018.6
20260904164040 84 249 3.0 7.0 0.00 0.00 0.00 72 1018.6
20260904163538 84 223 1.0 5.0 0.00 0.00 0.00 74 1018.6
20260904163101 83 252 2.0 6.0 0.00 0.00 0.00 75 1018.7
20260904162541 83 236 4.0 6.0 0.00 0.00 0.00 76 1018.7
20260904162037 83 254 4.0 5.0 0.00 0.00 0.00 75 1018.8
20260904161600 83 229 3.0 6.0 0.00 0.00 0.00 75 1018.8
20260904161043 83 234 3.0 7.0 0.00 0.00 0.00 75 1018.8
20260904160539 83 225 4.0 7.0 0.00 0.00 0.00 75 1018.8
20260904160056 83 251 3.0 5.0 0.00 0.00 0.00 75 1018.9
20260904155538 82 247 3.0 5.0 0.00 0.00 0.00 76 1019.1
20260904155038 82 243 2.0 4.0 0.00 0.00 0.00 76 1019.1
20260904154556 82 242 2.0 4.0 0.00 0.00 0.00 76 1019.1
20260904154041 82 246 1.0 5.0 0.00 0.00 0.00 76 1019.1
20260904153538 81 238 3.0 5.0 0.00 0.00 0.00 77 1019.1
20260904153100 81 232 2.0 5.0 0.00 0.00 0.00 77 1019.1
20260904152539 81 207 2.0 4.0 0.00 0.00 0.00 78 1019.1
20260904152038 81 261 2.0 4.0 0.00 0.00 0.00 78 1019.2
20260904151604 81 256 2.0 3.0 0.00 0.00 0.00 78 1019.1
20260904151038 80 0 0.0 3.0 0.00 0.00 0.00 78 1019.0
20260904150542 80 276 1.0 3.0 0.00 0.00 0.00 78 1019.1
20260904145538 80 223 0.0 2.0 0.00 0.00 0.00 80 1019.2
20260904145039 79 0 0.0 2.0 0.00 0.00 0.00 80 1019.1
20260904144554 79 0 0.0 3.0 0.00 0.00 0.00 81 1019.1
20260904144038 78 0 1.0 3.0 0.00 0.00 0.00 81 1019.1
20260904143538 78 251 1.0 3.0 0.00 0.00 0.00 82 1019.0
20260904143130 78 309 1.0 2.0 0.00 0.00 0.00 83 1018.9
20260904142538 78 309 0.0 2.0 0.00 0.00 0.00 83 1018.9
20260904142038 77 0 0.0 3.0 0.00 0.00 0.00 83 1018.8
20260904141606 77 345 1.0 3.0 0.00 0.00 0.00 83 1018.9
20260904141040 77 261 1.0 3.0 0.00 0.00 0.00 83 1018.8
20260904140538 77 261 1.0 3.0 0.00 0.00 0.00 83 1018.7
20260904140056 77 261 1.0 3.0 0.00 0.00 0.00 84 1018.8
20260904135538 76 260 1.0 2.0 0.00 0.00 0.00 84 1018.8
20260904135041 76 305 0.0 2.0 0.00 0.00 0.00 84 1018.7
20260904134559 76 305 1.0 2.0 0.00 0.00 0.00 84 1018.8
20260904134043 75 335 0.0 2.0 0.00 0.00 0.00 84 1018.8
20260904133538 75 0 0.0 3.0 0.00 0.00 0.00 84 1018.8
20260904133100 75 229 1.0 3.0 0.00 0.00 0.00 84 1018.8
20260904132540 75 0 1.0 3.0 0.00 0.00 0.00 84 1018.9
20260904132039 75 230 0.0 3.0 0.00 0.00 0.00 84 1018.8
20260904131554 75 230 1.0 3.0 0.00 0.00 0.00 84 1018.9
20260904131038 74 0 0.0 2.0 0.00 0.00 0.00 83 1018.8
20260904130538 74 0 0.0 2.0 0.00 0.00 0.00 83 1018.9
20260904130054 73 93 0.0 3.0 0.00 0.00 0.00 82 1018.8
20260904125539 73 93 1.0 4.0 0.00 0.00 0.00 82 1018.9
20260904125039 72 98 1.0 4.0 0.00 0.00 0.00 82 1018.9
20260904124555 72 98 1.0 3.0 0.00 0.00 0.00 82 1018.8
20260904124039 72 59 2.0 3.0 0.00 0.00 0.00 82 1018.9
20260904123538 72 31 1.0 3.0 0.00 0.00 0.00 82 1018.8
20260904123056 72 64 1.0 2.0 0.00 0.00 0.00 82 1018.8
20260904122538 72 0 0.0 2.0 0.00 0.00 0.00 82 1018.7
20260904122038 72 0 1.0 3.0 0.00 0.00 0.00 82 1018.8
20260904121549 72 49 0.0 3.0 0.00 0.00 0.00 82 1018.8
20260904121042 72 36 1.0 2.0 0.00 0.00 0.00 82 1018.7
20260904120538 71 0 0.0 2.0 0.00 0.00 0.00 82 1018.6
20260904115537 71 67 0.0 1.0 0.00 0.00 0.00 82 1018.5
20260904115038 71 0 0.0 2.0 0.00 0.00 0.00 82 1018.7
20260904114556 71 0 0.0 2.0 0.00 0.00 0.00 82 1018.6
20260904114039 71 66 0.0 2.0 0.00 0.00 0.00 82 1018.6
20260904113539 71 0 0.0 2.0 0.00 0.00 0.00 82 1018.6
20260904113059 71 66 1.0 2.0 0.00 0.00 0.00 82 1018.6
20260904112542 71 0 0.0 2.0 0.00 0.00 0.00 82 1018.5
20260904112041 71 0 0.0 2.0 0.00 0.00 0.00 82 1018.3
20260904111604 71 67 1.0 2.0 0.00 0.00 0.00 82 1018.3
20260904111043 72 0 0.0 3.0 0.00 0.00 0.00 82 1018.3
20260904110539 72 67 1.0 3.0 0.00 0.00 0.00 82 1018.2
20260904110113 72 0 0.0 1.0 0.00 0.00 0.00 82 1018.2
20260904105541 72 0 0.0 1.0 0.00 0.00 0.00 82 1018.2
20260904105041 72 0 0.0 2.0 0.00 0.00 0.00 82 1018.2
20260904104559 72 0 0.0 2.0 0.00 0.00 0.00 82 1018.2
20260904104040 72 0 0.0 3.0 0.00 0.00 0.00 82 1018.2
20260904103539 72 82 1.0 3.0 0.00 0.00 0.00 82 1018.2
20260904103054 72 79 0.0 2.0 0.00 0.00 0.00 82 1018.0
20260904102539 72 0 0.0 2.0 0.00 0.00 0.00 82 1018.1
20260904102042 72 0 0.0 2.0 0.00 0.00 0.00 82 1018.1
20260904101559 72 0 0.0 2.0 0.00 0.00 0.00 82 1018.0
20260904101042 72 0 0.0 0.0 0.00 0.00 0.00 82 1017.9
20260904100539 72 0 0.0 0.0 0.00 0.00 0.00 83 1017.9
20260904100057 72 0 0.0 1.0 0.00 0.00 0.00 83 1017.9
20260904095539 72 0 0.0 2.0 0.00 0.00 0.00 83 1017.9
20260904095039 72 0 0.0 2.0 0.00 0.00 0.00 83 1018.0
20260904094601 72 67 0.0 2.0 0.00 0.00 0.00 83 1017.9
20260904094042 72 0 0.0 2.0 0.00 0.00 0.00 83 1018.0
20260904093539 72 0 0.0 2.0 0.00 0.00 0.00 83 1017.9
20260904093059 72 0 0.0 2.0 0.00 0.00 0.00 83 1017.9
20260904092540 73 0 0.0 2.0 0.00 0.00 0.00 83 1017.9
20260904092039 73 0 0.0 4.0 0.00 0.00 0.00 83 1017.9
20260904091559 73 103 2.0 4.0 0.00 0.00 0.00 83 1017.9
20260904091039 73 25 1.0 4.0 0.00 0.00 0.00 83 1017.9
20260904090539 73 0 0.0 3.0 0.00 0.00 0.00 83 1017.8
20260904090106 73 0 0.0 3.0 0.00 0.00 0.00 82 1017.9
20260904085543 73 66 1.0 3.0 0.00 0.00 0.00 82 1017.8
20260904085039 73 98 0.0 2.0 0.00 0.00 0.00 83 1017.9
20260904084554 73 98 0.0 2.0 0.00 0.00 0.00 83 1017.7
20260904084038 73 0 0.0 2.0 0.00 0.00 0.00 83 1017.7